TimeAST,TemperatureF,Dew PointF,Humidity,Sea Level PressureIn,VisibilityMPH,Wind Direction,Wind SpeedMPH,Gust SpeedMPH,PrecipitationIn,Events,Conditions,WindDirDegrees,DateUTC
12:00 AM,77.0,66.2,69,30.01,6.2,East,9.2,-,N/A,,Partly Cloudy,90,2013-04-11 04:00:00
1:00 AM,77.0,66.2,69,29.98,6.2,ENE,5.8,-,N/A,,Scattered Clouds,70,2013-04-11 05:00:00
2:00 AM,78,64,53,29.98,25,East,12.7,,,,Scattered Clouds,100,2013-04-11 06:00:00
2:00 AM,77.0,64.4,65,29.98,6.2,East,12.7,-,N/A,,Partly Cloudy,90,2013-04-11 06:00:00
3:00 AM,77.0,66.2,69,29.98,6.2,ESE,12.7,-,N/A,,Partly Cloudy,110,2013-04-11 07:00:00
4:00 AM,77.0,66.2,69,29.98,6.2,ESE,13.8,-,N/A,,Scattered Clouds,110,2013-04-11 08:00:00
5:00 AM,77,67,65,30.00,25,ESE,9.2,,,,Partly Cloudy,120,2013-04-11 09:00:00
5:00 AM,77.0,68.0,74,29.98,6.2,ESE,9.2,-,N/A,,Scattered Clouds,120,2013-04-11 09:00:00
6:00 AM,77.0,64.4,65,30.01,6.2,ESE,11.5,-,N/A,,Partly Cloudy,120,2013-04-11 10:00:00
7:00 AM,78.8,66.2,65,30.01,6.2,East,11.5,-,N/A,,Scattered Clouds,100,2013-04-11 11:00:00
8:00 AM,80,65,52,30.03,40,ESE,13.8,,,,,110,2013-04-11 12:00:00
8:00 AM,80.6,66.2,61,30.01,6.2,ESE,13.8,-,N/A,,Partly Cloudy,110,2013-04-11 12:00:00
9:00 AM,82.4,64.4,54,30.04,6.2,East,12.7,-,N/A,,Partly Cloudy,90,2013-04-11 13:00:00
10:00 AM,82.4,64.4,54,30.04,6.2,East,11.5,-,N/A,,Partly Cloudy,100,2013-04-11 14:00:00
11:00 AM,83,65,44,30.05,40,SE,10.4,,,,Scattered Clouds,130,2013-04-11 15:00:00
11:00 AM,82.4,64.4,54,30.04,6.2,SE,10.4,-,N/A,,Partly Cloudy,130,2013-04-11 15:00:00
12:00 PM,84.2,66.2,55,30.04,6.2,ESE,13.8,-,N/A,,Partly Cloudy,110,2013-04-11 16:00:00
1:00 PM,84.2,66.2,55,30.01,6.2,ESE,11.5,-,N/A,,Partly Cloudy,110,2013-04-11 17:00:00
2:00 PM,84,66,46,29.99,31,ESE,17.3,,,,Partly Cloudy,120,2013-04-11 18:00:00
2:00 PM,84.2,66.2,55,29.98,6.2,East,17.3,-,N/A,,Scattered Clouds,100,2013-04-11 18:00:00
3:00 PM,84.2,66.2,55,29.98,6.2,East,15.0,-,N/A,,Scattered Clouds,100,2013-04-11 19:00:00
4:00 PM,84.2,66.2,55,29.98,6.2,East,13.8,-,N/A,,Scattered Clouds,100,2013-04-11 20:00:00
5:00 PM,83,69,53,29.97,31,East,13.8,,,,Partly Cloudy,100,2013-04-11 21:00:00
5:00 PM,82.4,68.0,62,29.95,6.2,East,13.8,-,N/A,,Scattered Clouds,100,2013-04-11 21:00:00
6:00 PM,80.6,68.0,65,29.98,6.2,East,11.5,-,N/A,,Partly Cloudy,100,2013-04-11 22:00:00
7:00 PM,78.8,68.0,69,29.98,6.2,East,10.4,-,N/A,,Partly Cloudy,100,2013-04-11 23:00:00
8:00 PM,79,68,62,30.01,25,East,11.5,,,,Scattered Clouds,100,2013-04-12 00:00:00
8:00 PM,78.8,68.0,69,30.01,6.2,East,11.5,-,N/A,,Partly Cloudy,100,2013-04-12 00:00:00
9:00 PM,78.8,69.8,74,30.01,6.2,East,13.8,-,N/A,,Partly Cloudy,100,2013-04-12 01:00:00
10:00 PM,78.8,69.8,74,30.04,6.2,East,16.1,-,N/A,,Partly Cloudy,90,2013-04-12 02:00:00
11:00 PM,78,69,67,30.03,25,East,15.0,,,,Scattered Clouds,100,2013-04-12 03:00:00
11:00 PM,78.8,69.8,74,30.01,6.2,East,15.0,-,N/A,,Partly Cloudy,100,2013-04-12 03:00:00